EW5635 Weather Reports


time (UTC)temp
F
wind
direction
speed
knots
gust
knots
rain 1hr
in
rain 24hr
in
rain mn
in
humidity
%
barometer
mb
20260507193527 57 0.0 1.7 0.00 0.00 0.00 80 1009.2
20260507192523 57 0.0 0.0 0.00 0.00 0.00 80 1009.0
20260507191541 57 10 0.9 1.7 0.00 0.00 0.00 81 1009.0
20260507190537 57 10 0.9 1.7 0.00 0.00 0.00 80 1009.0
20260507185616 58 18 0.9 1.7 0.00 0.00 0.00 77 1009.0
20260507184612 59 14 0.9 1.7 0.00 0.00 0.00 77 1009.0
20260507183630 60 7 0.9 1.7 0.00 0.00 0.00 74 1008.7
20260507182606 60 4 0.9 1.7 0.00 0.00 0.00 74 1008.6
20260507181604 61 23 0.0 1.7 0.00 0.00 0.00 73 1008.5
20260507180602 61 23 0.9 1.7 0.00 0.00 0.00 71 1008.5
20260507175559 62 23 0.9 3.5 0.00 0.00 0.00 69 1008.4
20260507174555 63 0.0 0.0 0.00 0.00 0.00 69 1008.3
20260507173554 64 0.0 0.0 0.00 0.00 0.00 67 1008.3
20260507172554 64 0.0 0.0 0.00 0.00 0.00 67 1008.3
20260507171548 66 0.0 0.0 0.00 0.00 0.00 67 1008.2
20260507170627 67 146 0.0 1.7 0.00 0.00 0.00 60 1008.3
20260507165542 67 158 0.9 1.7 0.00 0.00 0.00 58 1008.4
20260507164539 68 200 0.9 1.7 0.00 0.00 0.00 59 1008.1
20260507163557 71 184 1.7 5.2 0.00 0.00 0.00 53 1008.1
20260507162534 70 194 2.6 6.1 0.00 0.00 0.00 52 1008.1
20260507161531 71 194 2.6 6.1 0.00 0.00 0.00 51 1008.1
20260507160529 69 195 0.9 3.5 0.00 0.00 0.00 54 1008.0
20260507155527 71 186 2.6 5.2 0.00 0.00 0.00 48 1008.0
20260507154543 73 195 0.9 3.5 0.00 0.00 0.00 45 1008.1
20260507153521 73 162 0.9 5.2 0.00 0.00 0.00 46 1008.1
20260507152538 71 340 0.9 1.7 0.00 0.00 0.00 45 1008.1
20260507151615 72 351 0.9 1.7 0.00 0.00 0.00 45 1008.2
20260507150612 70 12 0.9 3.5 0.00 0.00 0.00 47 1008.3
20260507145608 71 2 0.9 3.5 0.00 0.00 0.00 48 1008.4
20260507144607 71 292 0.9 1.7 0.00 0.00 0.00 48 1008.4
20260507143603 73 283 0.0 1.7 0.00 0.00 0.00 46 1008.5
20260507142601 74 170 0.9 3.5 0.00 0.00 0.00 46 1008.4
20260507141639 73 237 0.9 1.7 0.00 0.00 0.00 47 1008.6
20260507140556 70 263 0.0 1.7 0.00 0.00 0.00 50 1008.7
20260507135554 69 38 0.9 3.5 0.00 0.00 0.00 49 1008.8
20260507134550 70 0 0.9 3.5 0.00 0.00 0.00 49 1008.9
20260507133547 70 326 1.7 3.5 0.00 0.00 0.00 50 1009.1
20260507132544 71 300 1.7 3.5 0.00 0.00 0.00 48 1009.2
20260507131542 73 269 0.9 1.7 0.00 0.00 0.00 47 1009.1
20260507130601 72 143 1.7 5.2 0.00 0.00 0.00 44 1009.2
20260507125556 73 220 0.9 1.7 0.00 0.00 0.00 47 1009.2
20260507124552 71 221 0.9 3.5 0.00 0.00 0.00 50 1009.3
20260507123530 67 23 0.0 1.7 0.00 0.00 0.00 53 1009.3
20260507122528 67 2 0.9 3.5 0.00 0.00 0.00 55 1009.4
20260507121526 72 248 0.0 1.7 0.00 0.00 0.00 52 1009.4
20260507120523 67 0.0 0.0 0.00 0.00 0.00 57 1009.5
20260507115540 66 352 0.0 1.7 0.00 0.00 0.00 58 1009.6
20260507114516 66 343 1.7 3.5 0.00 0.00 0.00 58 1009.7
20260507113614 66 6 2.6 3.5 0.00 0.00 0.00 59 1009.8
20260507112611 68 314 2.6 5.2 0.00 0.00 0.00 56 1009.9
20260507111608 65 277 0.9 3.5 0.00 0.00 0.00 61 1010.0
20260507110606 65 352 2.6 3.5 0.00 0.00 0.00 62 1010.1
20260507105603 66 355 1.7 3.5 0.00 0.00 0.00 60 1010.1
20260507104600 66 312 1.7 5.2 0.00 0.00 0.00 62 1010.2
20260507103618 65 337 2.6 5.2 0.00 0.00 0.00 63 1010.3
20260507102617 65 339 2.6 5.2 0.00 0.00 0.00 62 1010.4
20260507101613 64 7 1.7 5.2 0.00 0.01 0.00 63 1010.5
20260507100550 64 340 2.6 6.1 0.00 0.01 0.00 63 1010.5
20260507095551 63 28 1.7 3.5 0.00 0.01 0.00 64 1010.6
20260507094543 64 352 1.7 5.2 0.00 0.01 0.00 65 1010.5
20260507093541 63 11 0.9 3.5 0.00 0.01 0.00 69 1010.5
20260507092539 63 339 1.7 3.5 0.00 0.01 0.00 70 1010.6
20260507091555 62 345 0.9 3.5 0.00 0.01 0.00 73 1010.6
20260507090533 63 16 0.9 3.5 0.00 0.01 0.00 71 1010.5
20260507085530 61 320 2.6 3.5 0.00 0.01 0.00 74 1010.6
20260507084527 61 336 1.7 5.2 0.00 0.01 0.00 74 1010.6
20260507083525 61 302 1.7 3.5 0.00 0.01 0.00 75 1010.5
20260507082523 60 342 0.9 1.7 0.00 0.01 0.00 77 1010.7
20260507081521 59 1 1.7 3.5 0.00 0.01 0.00 80 1010.7
20260507080542 57 295 1.7 3.5 0.00 0.01 0.00 83 1010.8
20260507075616 56 295 0.9 3.5 0.00 0.01 0.00 84 1010.9
20260507074618 55 322 0.9 3.5 0.00 0.01 0.00 84 1010.9
20260507073628 53 326 1.7 3.5 0.00 0.01 0.00 91 1010.9
20260507072605 52 347 0.9 1.7 0.00 0.01 0.00 98 1010.9
20260507071602 51 11 0.0 1.7 0.00 0.01 0.00 98 1011.0
20260507070559 50 0.0 0.0 0.00 0.01 0.00 99 1011.0
20260507065557 49 136 0.9 1.7 0.00 0.01 0.00 99 1010.9
20260507064554 49 135 0.9 1.7 0.00 0.01 0.00 99 1010.9
20260507063551 47 125 0.9 3.5 0.00 0.01 0.00 99 1010.9
20260507062609 47 135 0.0 1.7 0.00 0.01 0.00 99 1010.9
20260507061547 47 23 0.0 1.7 0.00 0.01 0.00 99 1010.7
20260507060543 46 0.0 0.0 0.00 0.01 0.00 99 1010.7
20260507055600 45 0.0 0.0 0.00 0.01 0.00 99 1010.8
20260507054537 45 0.0 0.0 0.00 0.01 0.00 99 1010.7
20260507053535 45 68 0.0 1.7 0.00 0.01 0.00 99 1010.6
20260507052532 45 0.0 0.0 0.00 0.01 0.00 99 1010.5
20260507051549 44 0.0 1.7 0.00 0.01 0.00 99 1010.3
20260507050607 45 2 1.7 3.5 0.00 0.01 0.00 99 1010.4
20260507045544 45 19 1.7 1.7 0.00 0.01 0.00 99 1010.3
20260507044521 45 9 0.9 1.7 0.00 0.01 0.00 99 1010.3
20260507043518 44 0.0 1.7 0.00 0.01 0.00 99 1010.2
20260507042515 44 7 0.0 1.7 0.00 0.01 0.00 98 1010.1
20260507041613 44 23 0.9 1.7 0.00 0.01 0.00 98 1010.0
20260507040631 45 0 0.9 1.7 0.00 0.01 0.00 98 1009.9
20260507035608 45 0 0.0 1.7 0.00 0.01 0.00 98 1010.0
20260507034605 46 0.0 0.0 0.00 0.01 0.00 98 1010.0
20260507033623 45 0.0 1.7 0.00 0.01 0.00 98 1010.0
20260507032600 46 16 0.9 1.7 0.00 0.01 0.00 98 1009.9
20260507031557 47 10 0.9 1.7 0.00 0.01 0.00 98 1009.9
20260507030555 46 4 0.9 1.7 0.00 0.01 0.00 98 1009.9
20260507025551 47 30 0.0 1.7 0.00 0.01 0.00 98 1009.9
20260507024551 46 18 0.9 1.7 0.00 0.01 0.00 97 1009.9
20260507023545 46 11 0.9 1.7 0.00 0.01 0.00 97 1009.9
20260507022542 48 18 0.9 3.5 0.00 0.01 0.00 97 1010.0
20260507021541 48 23 0.9 1.7 0.00 0.01 0.00 97 1010.0
20260507020536 48 23 0.0 1.7 0.00 0.01 0.00 97 1010.0
20260507015532 48 9 0.9 1.7 0.00 0.01 0.00 97 1009.9
20260507014531 48 16 1.7 3.5 0.00 0.01 0.00 96 1009.8
20260507013528 48 357 1.7 3.5 0.00 0.01 0.00 96 1009.7
20260507012546 49 4 0.9 1.7 0.00 0.01 0.00 96 1009.7
20260507011522 50 15 0.9 1.7 0.00 0.01 0.00 96 1009.6
20260507010519 50 21 0.9 1.7 0.00 0.01 0.00 95 1009.6
20260507005516 49 23 0.0 1.7 0.00 0.01 0.00 95 1009.7
20260507004635 50 0.0 0.0 0.00 0.01 0.00 94 1009.6
20260507003612 51 0 0.0 1.7 0.00 0.02 0.00 95 1009.8
20260507002608 51 0.0 1.7 0.00 0.02 0.00 95 1009.8
20260507001605 51 13 0.9 1.7 0.00 0.05 0.00 95 1009.7
20260507000603 51 0.0 0.0 0.00 0.06 0.00 95 1009.7
20260506235600 51 0.0 0.0 0.00 0.07 0.00 95 1009.8
20260506234557 51 0.0 1.7 0.00 0.07 0.00 94 1009.9
20260506233555 50 23 0.0 1.7 0.00 0.08 0.00 94 1009.7
20260506232552 50 0 0.0 1.7 0.00 0.11 0.00 94 1009.8
20260506231549 51 0 0.9 1.7 0.00 0.13 0.00 93 1009.8
20260506230546 51 23 0.0 1.7 0.00 0.13 0.00 94 1009.8
20260506225543 51 0 0.9 1.7 0.00 0.14 0.00 94 1009.9
20260506224548 51 0.0 1.7 0.00 0.14 0.00 94 1009.9
20260506223538 51 0.0 1.7 0.00 0.14 0.00 93 1009.9
20260506222536 51 0.0 1.7 0.00 0.15 0.00 92 1009.7
20260506221532 52 23 0.0 1.7 0.00 0.15 0.00 92 1009.7
20260506220531 52 14 0.9 1.7 0.00 0.15 0.00 91 1009.5
20260506215526 52 0.0 0.0 0.00 0.15 0.15 91 1009.6
20260506214524 52 85 0.0 1.7 0.00 0.17 0.15 91 1009.4
20260506213521 52 8 0.9 1.7 0.00 0.17 0.15 91 1009.2
20260506212519 53 23 0.0 1.7 0.00 0.17 0.15 90 1009.3
20260506211515 53 19 0.9 1.7 0.00 0.17 0.15 89 1009.1
20260506210613 53 341 0.9 1.7 0.00 0.17 0.15 88 1009.0
20260506205610 53 7 1.7 3.5 0.00 0.17 0.15 87 1009.1
20260506204627 54 0 0.9 1.7 0.00 0.17 0.15 86 1008.9
20260506203605 54 347 2.6 5.2 0.00 0.18 0.15 85 1008.8
20260506202602 55 286 1.7 5.2 0.00 0.19 0.15 80 1008.7
20260506201559 55 0.0 1.7 0.00 0.20 0.15 78 1008.4
20260506200556 56 4 0.9 1.7 0.00 0.20 0.15 75 1008.5
20260506195613 57 354 2.6 5.2 0.00 0.20 0.15 73 1008.3
20260506194551 57 3 4.3 9.6 0.00 0.20 0.15 73 1008.3